EW3263 Weather Reports


Display with metric or nautical units.
time (UTC)temp
F
wind
direction
speed
MPH
gust
MPH
rain 1hr
in
rain 24hr
in
rain mn
in
humidity
%
barometer
mb
20260906131536 73 0.0 0.0 0.00 0.00 0.00 79 1016.4
20260906130043 73 0.0 0.0 0.00 0.00 0.00 77 1016.5
20260906124525 73 0.0 0.0 0.00 0.00 0.00 78 1016.4
20260906123031 72 0.0 0.0 0.00 0.00 0.00 78 1016.4
20260906121516 72 0.0 0.0 0.00 0.00 0.00 77 1016.4
20260906120012 72 0.0 0.0 0.00 0.00 0.00 79 1016.5
20260906114509 72 0.0 0.0 0.00 0.00 0.00 80 1016.7
20260906113008 72 0.0 0.0 0.00 0.00 0.00 77 1016.6
20260906111617 72 0.0 0.0 0.00 0.00 0.00 79 1016.7
20260906110054 73 0.0 0.0 0.00 0.00 0.00 78 1016.8
20260906104550 73 0.0 0.0 0.00 0.00 0.00 75 1017.0
20260906103051 74 0.0 0.0 0.00 0.00 0.00 71 1017.0
20260906101543 74 0.0 0.0 0.00 0.00 0.00 67 1016.9
20260906100041 75 0.0 0.0 0.00 0.00 0.00 61 1016.9
20260906094545 76 0.0 0.0 0.00 0.00 0.00 57 1016.9
20260906093037 76 0.0 0.0 0.00 0.00 0.00 54 1017.1
20260906091534 76 0.0 0.0 0.00 0.00 0.00 54 1017.1
20260906090021 76 0.0 0.0 0.00 0.00 0.00 54 1017.1
20260906084516 76 0.0 0.0 0.00 0.00 0.00 53 1017.3
20260906083011 76 0.0 0.0 0.00 0.00 0.00 52 1017.5
20260906081507 77 0.0 0.0 0.00 0.00 0.00 52 1017.5
20260906080002 77 0.0 0.0 0.00 0.00 0.00 51 1017.5
20260906074558 77 0.0 0.0 0.00 0.00 0.00 51 1017.7
20260906073054 77 0.0 0.0 0.00 0.00 0.00 50 1017.8
20260906071549 77 0.0 0.0 0.00 0.00 0.00 49 1017.9
20260906070045 77 0.0 0.0 0.00 0.00 0.00 49 1018.0
20260906064540 77 0.0 0.0 0.00 0.00 0.00 48 1018.0
20260906063043 77 0.0 0.0 0.00 0.00 0.00 47 1017.9
20260906061533 77 0.0 0.0 0.00 0.00 0.00 46 1017.9
20260906060027 77 0.0 0.0 0.00 0.00 0.00 46 1017.7
20260906054539 77 0.0 0.0 0.00 0.00 0.00 45 1018.0
20260906053020 77 0.0 0.0 0.00 0.00 0.00 45 1018.2
20260906051517 77 0.0 0.0 0.00 0.00 0.00 46 1018.2
20260906050010 77 0.0 0.0 0.00 0.00 0.00 46 1018.3
20260906044506 77 0.0 0.0 0.00 0.00 0.00 45 1018.2
20260906043002 77 0.0 0.0 0.00 0.00 0.00 44 1018.2
20260906041557 78 0.0 0.0 0.00 0.00 0.00 44 1018.1
20260906034553 78 0.0 0.0 0.00 0.00 0.00 42 1017.9
20260906033045 79 0.0 0.0 0.00 0.00 0.00 42 1017.8
20260906031603 79 0.0 0.0 0.00 0.00 0.00 41 1017.8
20260906030035 80 0.0 0.0 0.00 0.00 0.00 41 1017.6
20260906024551 81 0.0 0.0 0.00 0.00 0.00 42 1017.5
20260906023027 82 0.0 0.0 0.00 0.00 0.00 44 1017.4
20260906021523 82 0.0 0.0 0.00 0.00 0.00 44 1017.3
20260906020017 83 0.0 0.0 0.00 0.00 0.00 42 1017.4
20260906014518 84 0.0 0.0 0.00 0.00 0.00 39 1017.4
20260906013010 85 0.0 0.0 0.00 0.00 0.00 39 1017.5
20260906011505 86 0.0 0.0 0.00 0.00 0.00 37 1017.5
20260906004557 87 0.0 0.0 0.00 0.00 0.00 36 1017.5
20260906003052 87 0.0 0.0 0.00 0.00 0.00 35 1017.4
20260906001547 88 0.0 0.0 0.00 0.00 0.00 34 1017.4
20260906000053 89 0.0 0.0 0.00 0.00 0.00 33 1017.3
20260905234548 89 0.0 0.0 0.00 0.00 0.00 33 1017.3
20260905233035 89 0.0 0.0 0.00 0.00 0.00 32 1017.3
20260905231530 90 0.0 0.0 0.00 0.00 0.00 31 1017.3
20260905230032 90 0.0 0.0 0.00 0.00 0.00 31 1017.4
20260905224521 90 0.0 0.0 0.00 0.00 0.00 32 1017.5
20260905223018 90 0.0 0.0 0.00 0.00 0.00 31 1017.5
20260905221513 90 0.0 0.0 0.00 0.00 0.00 31 1017.8
20260905220008 92 0.0 0.0 0.00 0.00 0.00 30 1017.9
20260905214504 91 0.0 0.0 0.00 0.00 0.00 29 1017.9
20260905213102 91 0.0 0.0 0.00 0.00 0.00 29 1018.1
20260905211607 90 0.0 0.0 0.00 0.00 0.00 30 1018.2
20260905210100 91 0.0 0.0 0.00 0.00 0.00 30 1018.4
20260905204550 90 0.0 0.0 0.00 0.00 0.00 32 1018.6
20260905203042 90 0.0 0.0 0.00 0.00 0.00 28 1018.7
20260905201548 90 0.0 0.0 0.00 0.00 0.00 27 1018.9
20260905200036 90 0.0 0.0 0.00 0.00 0.00 26 1018.9
20260905194529 89 0.0 0.0 0.00 0.00 0.00 29 1019.2
20260905193024 90 0.0 0.0 0.00 0.00 0.00 22 1019.3
20260905191520 90 0.0 0.0 0.00 0.00 0.00 24 1019.6
20260905190016 89 0.0 0.0 0.00 0.00 0.00 22 1019.8
20260905184514 88 0.0 0.0 0.00 0.00 0.00 22 1019.9
20260905183007 88 0.0 0.0 0.00 0.00 0.00 21 1019.9
20260905181503 86 0.0 0.0 0.00 0.00 0.00 20 1020.0
20260905180104 86 0.0 0.0 0.00 0.00 0.00 18 1019.9
20260905174555 86 0.0 0.0 0.00 0.00 0.00 17 1020.0
20260905173100 85 0.0 0.0 0.00 0.00 0.00 18 1019.8
20260905171546 85 0.0 0.0 0.00 0.00 0.00 18 1019.8
20260905170043 85 0.0 0.0 0.00 0.00 0.00 21 1019.7
20260905164537 84 0.0 0.0 0.00 0.00 0.00 22 1019.6
20260905163032 83 0.0 0.0 0.00 0.00 0.00 23 1019.6
20260905161528 81 0.0 0.0 0.00 0.00 0.00 26 1019.5
20260905160027 81 0.0 0.0 0.00 0.00 0.00 26 1019.6
20260905154519 82 0.0 0.0 0.00 0.00 0.00 25 1019.6
20260905153015 81 0.0 0.0 0.00 0.00 0.00 28 1019.5
20260905151511 78 0.0 0.0 0.00 0.00 0.00 32 1019.5
20260905150006 74 0.0 0.0 0.00 0.00 0.00 36 1019.5
20260905144502 69 0.0 0.0 0.00 0.00 0.00 39 1019.4
20260905143058 65 0.0 0.0 0.00 0.00 0.00 43 1019.3
20260905141554 63 0.0 0.0 0.00 0.00 0.00 43 1019.3
20260905140050 62 0.0 0.0 0.00 0.00 0.00 43 1019.1
20260905134556 61 0.0 0.0 0.00 0.00 0.00 42 1018.8
20260905133044 61 0.0 0.0 0.00 0.00 0.00 43 1018.8